PROFILE

 METAR AND TAF INFORMATION
ADDS - METARS form results

(0558 UTC 22 September 2019)
http://aviationweather.gov/metar/data/
 
LFBD 220530Z AUTO VRB03KT 9999 -RA BKN036/// BKN047/// OVC054/// ///TCU 17/15 Q1009 TEMPO 2500 RA OVC010
LFBD 220500Z AUTO 30006KT 280V340 9999 -RA FEW023/// BKN032/// BKN040/// ///TCU 17/15 Q1009 TEMPO 2500 RA OVC010
TAF LFBD 220500Z 2206/2312 29005KT 5000 -RA SCT015 OVC040 TX22/2215Z TN13/2305Z TEMPO 2206/2208 2500 RA OVC010 BECMG 2208/2210 20005KT 9999 NSW BKN030 BECMG 2212/2214 27010KT PROB40 TEMPO 2215/2218 4000 -SHRA BKN025TCU BECMG 2218/2220 20005KT PROB30 2304/2306 1500 MIFG 

 AIRPORT MAP

 RUNWAY INFORMATION
Runway 05 Runway length 10171 ft Runway width 148 ft
Runway elevation 160 ft Runway displaced threshold 0 ft Runway heading 46
Runway 23 Runway length 10171 ft Runway width 148 ft
Runway elevation 151 ft Runway displaced threshold 0 ft Runway heading 226
Runway 11 Runway length 7923 ft Runway width 148 ft
Runway elevation 153 ft Runway displaced threshold 0 ft Runway heading 107
Runway 29 Runway length 7923 ft Runway width 148 ft
Runway elevation 160 ft Runway displaced threshold 0 ft Runway heading 287

 AIRPORT FREQUENCIES
Type APP Name AQUITAINE Frequency 118.6 MHZ
Type ARR Name APP Frequency 121.2 MHZ
Type ATIS Name ATIS Frequency 131.15 MHZ
Type GND Name GND Frequency 121.9 MHZ
Type INFO Name AQUITAINE Frequency 120.575 MHZ
Type OPS Name OPNS Frequency 143.175 MHZ
Type TWR Name TWR Frequency 118.3 MHZ

 AIRPORT NEAR NAVIGATION AIDS
Type NDB Name Bordeaux Frequency 393 KHZ
Type TACAN Name Bordeaux Frequency 114400 KHZ
Type NDB Name Bordeaux Frequency 318 KHZ
Type VOR-DME Name Bordeaux Frequency 113750 KHZ
Type NDB Name Bordeaux Frequency 361 KHZ